Location: Newark
(42.7133°N, 87.7910°W)
Time: 13:06:21
(UTC+00:00)

Tiros 1 - Pass Details

Date: 24 September 2019
Orbit: 630 x 664 km, 48.4° (Epoch: 16 October)

Event Time Altitude Azimuth Distance (km) Brightness Sun altitude
Rises 15:37:41 0° 192° (SSW) 2,975 11.0 38.4°
Reaches altitude 10° 15:40:48 10° 172° (S) 2,062 10.6 38.8°
Maximum altitude 15:43:44 16° 133° (SE) 1,676 10.8 39.1°
Drops below altitude 10° 15:46:40 10° 95° (E) 2,058 10.4 39.5°
Sets 15:49:45 0° 74° (ENE) 2,966 10.8 39.8°
